Location: Newark
(52.3735°N, 16.9806°E)
Time: 18:10:44
(UTC+00:00)

BEESAT - Visible Passes

Search period start: 07 December 2021 00:00
Search period end: 17 December 2021 00:00
Orbit: 700 x 707 km, 98.6° (Epoch: 07 December)

Date Brightness Start Highest point End Pass type
(mag) Time Alt. Az. Time Alt. Az. Time Alt. Az.
07 Dec ? 03:48:26 10° E 03:51:12 16° NE 03:53:59 10° NNE visible
07 Dec ? 05:23:26 10° SSE 05:28:12 79° ENE 05:33:01 10° NNW visible
08 Dec ? 04:29:46 10° ESE 04:33:54 30° ENE 04:38:03 10° N visible
08 Dec ? 06:06:54 10° S 06:11:29 46° W 06:16:06 10° NNW visible
09 Dec ? 03:37:51 10° ENE 03:40:00 13° NE 03:42:09 10° NNE visible
09 Dec ? 05:12:08 10° SSE 05:16:51 64° ENE 05:21:37 10° N visible
10 Dec ? 04:18:46 10° ESE 04:22:39 25° ENE 04:26:30 10° N visible
10 Dec ? 05:55:21 10° S 06:00:03 58° WSW 06:04:48 10° NNW visible
11 Dec ? 03:27:39 10° ENE 03:28:48 11° NE 03:29:58 10° NNE visible
11 Dec ? 05:00:54 10° SE 05:05:31 51° ENE 05:10:10 10° N visible
12 Dec ? 04:07:51 10° ESE 04:11:22 21° ENE 04:14:55 10° N visible
12 Dec ? 05:43:53 10° S 05:48:39 72° WSW 05:53:27 10° NNW visible
13 Dec ? 04:49:43 10° SE 04:54:11 42° ENE 04:58:42 10° N visible
14 Dec ? 03:57:01 10° E 04:00:08 18° NE 04:03:16 10° NNE visible
14 Dec ? 05:32:28 10° SSE 05:37:15 89° WSW 05:42:05 10° NNW visible
15 Dec ? 04:38:36 10° SE 04:42:53 34° ENE 04:47:12 10° N visible
16 Dec ? 03:46:19 10° E 03:48:55 15° NE 03:51:31 10° NNE visible
16 Dec ? 05:21:06 10° SSE 05:25:52 74° ENE 05:30:40 10° NNW visible
